sat.trackr.live / text

‹ back to catalog

GPS BIII-1 (PRN 04)

NORAD 43873 · 2018-109A

PAYLOAD ACTIVE UNKNOWN

§ Identity

Operator
Country
US
Launch date
2018-12-23
Launch site
AFETR
Launch vehicle
Mass (kg)
RCS (m²)

Purposes: earth_obs, nav

External: N2YO · Heavens-Above · Gunter

§ Orbital elements

Epoch: 2026-09-19T23:37:33.983040Z

Period
717.97 min
Inclination
55.7438°
Eccentricity
0.0040336
Mean motion
2.00565512 rev/d
Perigee alt
20,074.9 km
Apogee alt
20,289.2 km
Semi-major
26,560.2 km
B*
0.0000e+0
RAAN
88.4468°
Arg perigee
196.2461°
Mean anomaly
335.8843°
Rev number
5,697

§ Raw data

GPS BIII-1  (PRN 04)1 43873U 18109A   26262.98442110  .00000023  00000+0  00000+0 0  99942 43873  55.7438  88.4468 0040336 196.2461 335.8843  2.00565512 56979

JSON: /api/v1/satellites/43873 · /tle

For live sub-satellite position, see the globe view (requires WebGL).

§ Visibility from observer

Set your observer location to see the next 7 days of passes ≥ 10°. The values pass through the URL so the page stays shareable.

No JS? Fill the form by hand. The geolocation button needs JavaScript.